Hourly Data Report for September 15, 2017

All times are specified in Local Standard Time (LST). Add 1 hour to adjust for Daylight Saving Time where and when it is observed.

KOUCHIBOUGUAC CS
NEW BRUNSWICK

46°47'00.000" N
65°01'00.000" W
21.00 m
8102328
71670
AKC

Download Data

Hourly Data (September 2017)
Hourly Data Report for September 15, 2017
Temp Definition
°C
Dew Point Temp Definition
°C
Rel Hum Definition
%
Wind Dir Definition
10's deg

Wind Spd Definition
km/h
Visibility Definition
km
Stn Press Definition
kPa
Hmdx Definition


Wind Chill Definition


Weather Definition


TIME
00:00 12.3 11.7 96   0   101.18     LegendNANA
01:00 11.7 10.7 94   0   101.27     LegendNANA
02:00 12.1 11.2 94 0 1   101.34     LegendNANA
03:00 12.0 11.3 95   0   101.39     LegendNANA
04:00 12.5 11.7 95 0 1   101.42     LegendNANA
05:00 12.6 12.0 96 35 2   101.51     LegendNANA
06:00 11.6 11.0 97   0   101.61     LegendNANA
07:00 12.1 11.7 97   0   101.71     LegendNANA
08:00 15.2 12.8 86 15 3   101.77     LegendNANA
09:00 17.2 11.5 69 12 6   101.87     LegendNANA
10:00 17.8 10.7 63 7 3   101.92     LegendNANA
11:00 19.0 10.7 58 13 5   101.90     LegendNANA
12:00 19.1 11.1 60 8 5   101.89     LegendNANA
13:00 19.8 9.5 51 12 6   101.84     LegendNANA
14:00 20.6 11.0 54 12 4   101.80     LegendNANA
15:00 19.6 10.1 54 10 6   101.78     LegendNANA
16:00 19.2 11.1 59 13 9   101.80     LegendNANA
17:00 18.3 11.9 66 14 7   101.81     LegendNANA
18:00 16.5 11.9 74 14 4   101.82     LegendNANA
19:00 12.8 11.1 89 4 1   101.86     LegendNANA
20:00 11.3 10.6 95 16 6   101.86     LegendNANA
21:00 12.8 11.0 89 16 5   101.84     LegendNANA
22:00 13.2 11.1 87 16 6   101.81     LegendNANA
23:00 13.2 11.8 92 18 6   101.77     LegendNANA

Notes on Data Quality.

Legend

  • E = Estimated
  • M = Missing
  • NA = Not Available
  • ‡ = Partner data that is not subject to review by the National Climate Archives
Date modified: